Date,TemperatureHighF,TemperatureAvgF,TemperatureLowF,DewpointHighF,DewpointAvgF,DewpointLowF,HumidityHigh,HumidityAvg,HumidityLow,PressureMaxIn,PressureMinIn,WindSpeedMaxMPH,WindSpeedAvgMPH,GustSpeedMaxMPH,PrecipitationSumIn
2013-3-1,73.5,51.7,30.3,31.3,23.9,13.6,81,41,13,30.30,30.09,12,1,14,0.00
2013-3-2,68.5,52.3,40.0,29.8,27.4,24.6,63,41,21,30.43,30.25,17,2,17,0.00
2013-3-3,77.2,55.6,31.6,44.0,33.2,24.6,79,48,19,30.27,29.95,16,3,16,0.00
2013-3-4,87.7,66.7,45.6,54.9,47.7,39.3,96,57,19,29.95,29.69,11,2,13,0.00
2013-3-5,70.0,57.9,44.7,56.1,29.9,14.2,95,41,13,30.35,29.76,24,5,26,0.00
2013-3-6,66.3,49.7,34.8,27.6,19.6,14.2,51,33,15,30.45,30.22,13,2,13,0.00
2013-3-7,73.5,56.6,37.4,55.5,45.6,27.9,87,68,43,30.23,30.07,18,4,18,0.00
2013-3-8,70.3,64.6,61.1,64.7,59.8,53.6,93,84,76,30.12,29.95,20,5,20,0.02
2013-3-9,77.5,68.6,64.0,67.0,63.6,60.1,95,85,67,29.99,29.58,24,7,25,0.01
2013-3-10,70.8,63.3,51.3,64.0,42.8,30.6,94,51,23,30.12,29.58,23,7,23,0.07
2013-3-11,72.6,54.9,39.7,34.3,29.0,21.9,71,42,17,30.19,29.99,22,4,22,0.00
2013-3-12,79.9,58.4,36.1,43.2,31.8,25.8,80,43,15,30.20,30.05,14,2,14,0.00
2013-3-13,78.2,61.2,44.0,49.1,39.7,35.4,88,50,23,30.42,30.20,13,3,13,0.00
2013-3-14,79.5,62.1,41.8,55.6,46.1,36.8,93,61,28,30.38,30.20,16,3,16,0.00
2013-3-15,82.2,65.5,46.4,57.3,49.1,39.3,97,62,23,30.24,29.97,19,4,19,0.00
2013-3-16,85.9,68.7,53.5,61.8,56.4,49.8,97,69,30,30.00,29.71,20,5,21,0.00
2013-3-17,87.2,73.3,65.1,65.1,61.3,56.0,87,69,37,29.80,29.60,15,4,15,0.00
2013-3-18,96.9,75.4,59.4,66.4,52.6,18.5,97,59,6,29.89,29.68,21,4,21,0.00
2013-3-19,81.0,68.9,54.3,65.1,55.5,45.1,81,63,50,29.96,29.78,16,5,18,0.00
2013-3-20,74.6,64.7,56.8,63.9,49.5,37.8,87,61,29,30.20,29.90,26,6,26,0.01
2013-3-21,76.8,64.4,49.7,60.9,53.0,41.5,86,67,53,30.01,29.61,19,4,19,0.00
2013-3-22,89.5,73.2,64.8,67.9,64.1,57.1,96,76,37,29.70,29.58,16,2,16,0.00
2013-3-23,84.8,67.5,56.0,64.0,56.1,50.3,84,68,45,29.75,29.55,15,4,16,0.00
2013-3-24,67.8,57.1,43.8,59.4,32.1,18.9,87,44,18,30.15,29.66,29,8,29,0.00
2013-3-25,63.4,49.3,37.1,25.8,18.8,7.2,62,34,12,30.38,30.15,25,4,25,0.00
2013-3-26,69.5,52.5,35.7,29.8,20.6,14.9,56,32,13,30.50,30.28,12,3,12,0.00
2013-3-27,69.3,55.7,36.3,50.6,39.4,27.8,76,55,41,30.33,30.15,17,4,17,0.00
2013-3-28,71.2,64.8,59.5,58.8,55.8,50.5,83,73,62,30.19,30.10,17,4,17,0.00
2013-3-29,78.9,68.7,56.5,61.0,57.5,54.3,96,70,44,30.16,30.01,16,4,20,0.00
2013-3-30,85.0,73.0,64.5,64.8,61.8,59.4,89,70,44,30.07,29.86,9,4,16,0.00
2013-3-31,83.1,70.4,63.8,65.2,63.1,60.0,93,79,51,29.92,29.80,7,2,26,0.03